Terminal Aerodrome Forecast
Issued by NWS Twin Cities, MN

Home | Current Version | Previous Version | Graphics & Text | Print | Product List | Glossary On
Versions: 1 2 3 4 5 6 7 8 9 10 11 12 13 14
000
FTUS43 KMPX 181700
TAFSTC
TAF
KSTC 181728Z 1818/1918 VRB03KT P6SM FEW025
     FM190000 17004KT P6SM FEW150
     FM190900 16005KT P6SM BKN150=

USA.gov is the U.S. government's official web portal to all federal, state and local government web resources and services.